STARLINK-35625, 66140

Orbit data source: Space-Track

STARLINK-35625, 66140 is a payload satellite owned by SpaceX/Seattle (US) in LEO that was launched on Wed, 22 Oct 2025 UTC via an FALCON 9 launch vehicle from the Air Force Western Test Range (AFWTR). Payload-class satellites include a variety of spacecraft equipped with specific instruments for various scientific and technological missions. These include communications satellites like Starlink; space stations such as the ISS; scientific satellites like the Hubble; Earth observation satellites from companies like Planet Labs, Umbra, and HawkEye 360; GPS; miniature CubeSats for education and research; and military/defense satellites.

Loading next visibility...
Identifier
66140, 2025-237AC
Orbit
LEO
Country
Flag of USUS
Related business
Manufacturer
SpaceX/Seattle
Mission
Operational Commercial Communications
Bus & Motor
STARLINK V2MO, Unknown motor
Mass
575 kg wet, ~530 kg dry
Launch date (UTC)
2025-10-22 (4 months ago)
Launch vehicle
FALCON 9
Launch site
Air Force Western Test Range (AFWTR)
Object type
Payload
Rocket body
Debris
Shape & HBR
Box + 2 Pan, 17.7 m
Radar Cross Section
36.964 m²

Expand to show TLE details & history
Last TLE update: 20 hours ago

TLE from 20 hours ago
0 STARLINK-35625
1 66140U 25237AC  26061.32589739  .00020577  00000-0  70475-3 0  9994
2 66140  53.1590  73.7892 0001326  89.1386 270.9767 15.30209237 21480
Epoch: 2026-03-02T07:49Z
TLE epoch observation values (Epoch: 2026-03-02T07:49:17.534Z)
Latitude
Longitude
156.34522°
Altitude
476.072 km
Speed
7.629 km/s
True Right ascension
04h 55m 09s
True Declination
0° 00' 00"
Sunlit
Object was in daylight at epoch
Visualization orbit readout
Latitude
Unknown
Longitude
Unknown
Altitude
Unknown
Speed
Unknown
Apparent Right ascension
Unknown
Apparent Declination
Unknown
Sunlit
N/A
Visualization observer readout
Local Sidereal Time
07:14:17
Azimuth
Unknown
Elevation
Unknown
Doppler factor
Unknown
Orbital elements
Apogee altitude
476.353 km
Perigee altitude
474.535 km
Semi-major axis
6,853.581 km
Eccentricity
0.00013
Inclination
53.159°
RAAN
73.7892°
Arg. of periapsis
89.1386°
True anomaly
270.96151°
Mean anomaly
270.9767°
Eccentric anomaly
270.9691°
Mean motion
3.82531 °/min
Orbital period
94.11 mins
BSTAR
0.00070475
Loading maneuver chart data...
Computing Atmospheric mass density...
Loading historical data...
Loading historical data...
Loading historical data...
Loading historical data...
Loading historical data...
Loading historical data...
Loading historical data...

Documentation

Showing up to 5 results
|